Location: Vancouver
(49.2500°N, 123.1330°W)
Time: 04:08:01
(UTC-08:00)

Vanguard 2 Rocket - Visible Passes

Search period start: 19 December 2014 00:00
Search period end: 29 December 2014 00:00
Orbit: 554 x 3334 km, 32.9° (Epoch: 18 December)

Date Brightness Start Highest point End Pass type
(mag) Time Alt. Az. Time Alt. Az. Time Alt. Az.
19 Dec 11.8 17:09:59 10° WSW 17:16:07 12° SW 17:22:25 10° SSW visible
25 Dec 9.9 06:51:35 10° SSE 06:53:27 11° SE 06:55:32 10° SE visible
27 Dec 9.6 07:05:28 10° S 07:08:51 15° SSE 07:13:08 10° ESE visible
